| time (UTC) | temp C | wind direction | speed KPH | gust KPH | rain 1hr cm | rain 24hr cm | rain mn cm | humidity % | barometer mb |
| 20260503060208 | 1 | 241 | 1.6 | 3.2 | 0.00 | 0.00 | 0.00 | 75 | 1017.5 |
| 20260503054655 | 1 | 218 | 0.0 | 1.6 | 0.00 | 0.00 | 0.00 | 76 | 1017.5 |
| 20260503054152 | 2 | 228 | 0.0 | 0.0 | 0.00 | 0.00 | 0.00 | 75 | 1017.6 |
| 20260503053650 | 2 | 231 | 0.0 | 0.0 | 0.00 | 0.00 | 0.00 | 74 | 1017.6 |
| 20260503053149 | 2 | 216 | 0.0 | 1.6 | 0.00 | 0.00 | 0.00 | 74 | 1017.5 |
| 20260503052645 | 2 | 224 | 0.0 | 3.2 | 0.00 | 0.00 | 0.00 | 73 | 1017.6 |
| 20260503052141 | 2 | 247 | 1.6 | 4.8 | 0.00 | 0.00 | 0.00 | 72 | 1017.5 |
| 20260503051636 | 2 | 228 | 0.0 | 3.2 | 0.00 | 0.00 | 0.00 | 72 | 1017.5 |
| 20260503051135 | 3 | 228 | 0.0 | 1.6 | 0.00 | 0.00 | 0.00 | 71 | 1017.5 |
| 20260503050631 | 3 | 251 | 3.2 | 4.8 | 0.00 | 0.00 | 0.00 | 70 | 1017.4 |
| 20260503050128 | 3 | 240 | 1.6 | 3.2 | 0.00 | 0.00 | 0.00 | 71 | 1017.3 |
| 20260503045625 | 3 | 250 | 3.2 | 4.8 | 0.00 | 0.00 | 0.00 | 70 | 1017.2 |
| 20260503045122 | 3 | 227 | 1.6 | 3.2 | 0.00 | 0.00 | 0.00 | 69 | 1017.3 |
| 20260503044619 | 3 | 238 | 3.2 | 4.8 | 0.00 | 0.00 | 0.00 | 69 | 1017.5 |
| 20260503044116 | 3 | 242 | 3.2 | 3.2 | 0.00 | 0.00 | 0.00 | 69 | 1017.3 |
| 20260503043613 | 3 | 265 | 1.6 | 6.4 | 0.00 | 0.00 | 0.00 | 68 | 1017.4 |
| 20260503043110 | 3 | 243 | 1.6 | 4.8 | 0.00 | 0.00 | 0.00 | 68 | 1017.4 |
| 20260503042606 | 3 | 238 | 1.6 | 3.2 | 0.00 | 0.00 | 0.00 | 67 | 1017.0 |
| 20260503042102 | 3 | 281 | 1.6 | 6.4 | 0.00 | 0.00 | 0.00 | 68 | 1017.1 |
| 20260503041559 | 3 | 240 | 1.6 | 11.3 | 0.00 | 0.00 | 0.00 | 67 | 1017.1 |
| 20260503041058 | 3 | 235 | 1.6 | 9.7 | 0.00 | 0.00 | 0.00 | 67 | 1017.1 |
| 20260503040555 | 3 | 221 | 1.6 | 4.8 | 0.00 | 0.00 | 0.00 | 67 | 1017.3 |
| 20260503040052 | 3 | 242 | 4.8 | 4.8 | 0.00 | 0.00 | 0.00 | 67 | 1016.8 |
| 20260503035548 | 4 | 246 | 6.4 | 6.4 | 0.00 | 0.00 | 0.00 | 67 | 1017.1 |
| 20260503035046 | 4 | 253 | 3.2 | 9.7 | 0.00 | 0.00 | 0.00 | 65 | 1017.1 |
| 20260503034542 | 4 | 264 | 3.2 | 4.8 | 0.00 | 0.00 | 0.00 | 66 | 1017.1 |
| 20260503034040 | 4 | 248 | 4.8 | 6.4 | 0.00 | 0.00 | 0.00 | 66 | 1017.1 |
| 20260503033537 | 4 | 251 | 4.8 | 4.8 | 0.00 | 0.00 | 0.00 | 66 | 1017.2 |
| 20260503033035 | 4 | 229 | 3.2 | 6.4 | 0.00 | 0.00 | 0.00 | 66 | 1017.0 |
| 20260503032533 | 4 | 224 | 1.6 | 6.4 | 0.00 | 0.00 | 0.00 | 65 | 1017.0 |
| 20260503032031 | 4 | 242 | 3.2 | 4.8 | 0.00 | 0.00 | 0.00 | 64 | 1016.8 |
| 20260503031528 | 4 | 235 | 0.0 | 3.2 | 0.00 | 0.00 | 0.00 | 65 | 1017.0 |
| 20260503031025 | 5 | 255 | 4.8 | 6.4 | 0.00 | 0.00 | 0.00 | 63 | 1016.8 |
| 20260503030521 | 4 | 310 | 3.2 | 9.7 | 0.00 | 0.00 | 0.00 | 63 | 1017.1 |
| 20260503030019 | 4 | 272 | 1.6 | 3.2 | 0.00 | 0.00 | 0.00 | 64 | 1017.0 |
| 20260503025515 | 5 | 195 | 0.0 | 3.2 | 0.00 | 0.00 | 0.00 | 63 | 1016.8 |
| 20260503025013 | 4 | 254 | 4.8 | 6.4 | 0.00 | 0.00 | 0.00 | 63 | 1017.1 |
| 20260503024509 | 5 | 218 | 0.0 | 1.6 | 0.00 | 0.00 | 0.00 | 64 | 1017.0 |
| 20260503024006 | 5 | 247 | 1.6 | 4.8 | 0.00 | 0.00 | 0.00 | 63 | 1017.1 |
| 20260503023503 | 5 | 208 | 1.6 | 3.2 | 0.00 | 0.00 | 0.00 | 63 | 1017.2 |
| 20260503023000 | 5 | 228 | 1.6 | 4.8 | 0.00 | 0.00 | 0.00 | 62 | 1017.2 |
| 20260503022455 | 5 | 310 | 4.8 | 9.7 | 0.00 | 0.00 | 0.00 | 62 | 1017.1 |
| 20260503021951 | 5 | 30 | 3.2 | 9.7 | 0.00 | 0.00 | 0.00 | 62 | 1017.1 |
| 20260503021447 | 5 | 280 | 1.6 | 4.8 | 0.00 | 0.00 | 0.00 | 63 | 1017.2 |
| 20260503020945 | 5 | 272 | 4.8 | 6.4 | 0.00 | 0.00 | 0.00 | 63 | 1017.0 |
| 20260503020442 | 5 | 248 | 1.6 | 3.2 | 0.00 | 0.00 | 0.00 | 62 | 1016.8 |
| 20260503015939 | 5 | 229 | 0.0 | 1.6 | 0.00 | 0.00 | 0.00 | 63 | 1016.8 |
| 20260503015436 | 5 | 234 | 1.6 | 4.8 | 0.00 | 0.00 | 0.00 | 62 | 1016.7 |
| 20260503014931 | 5 | 308 | 3.2 | 4.8 | 0.00 | 0.00 | 0.00 | 63 | 1017.0 |
| 20260503014430 | 5 | 213 | 1.6 | 4.8 | 0.00 | 0.00 | 0.00 | 63 | 1016.6 |
| 20260503013928 | 5 | 273 | 1.6 | 6.4 | 0.00 | 0.00 | 0.00 | 62 | 1017.0 |
| 20260503013425 | 5 | 247 | 1.6 | 9.7 | 0.00 | 0.00 | 0.00 | 61 | 1016.7 |
| 20260503012922 | 5 | 256 | 3.2 | 4.8 | 0.00 | 0.00 | 0.00 | 63 | 1016.7 |
| 20260503012420 | 5 | 237 | 3.2 | 11.3 | 0.00 | 0.00 | 0.00 | 61 | 1016.7 |
| 20260503011915 | 5 | 222 | 3.2 | 4.8 | 0.00 | 0.00 | 0.00 | 63 | 1016.6 |
| 20260503011412 | 5 | 258 | 1.6 | 4.8 | 0.00 | 0.00 | 0.00 | 64 | 1016.6 |
| 20260503010909 | 5 | 238 | 1.6 | 3.2 | 0.00 | 0.00 | 0.00 | 63 | 1016.6 |
| 20260503010405 | 5 | 246 | 1.6 | 1.6 | 0.00 | 0.00 | 0.00 | 63 | 1016.5 |
| 20260503005902 | 5 | 239 | 0.0 | 1.6 | 0.00 | 0.00 | 0.00 | 61 | 1016.6 |
| 20260503005400 | 5 | 251 | 1.6 | 6.4 | 0.00 | 0.00 | 0.00 | 59 | 1016.3 |
| 20260503004855 | 6 | 231 | 0.0 | 4.8 | 0.00 | 0.00 | 0.00 | 58 | 1016.4 |
| 20260503004353 | 6 | 229 | 1.6 | 3.2 | 0.00 | 0.00 | 0.00 | 58 | 1016.2 |
| 20260503003851 | 6 | 252 | 3.2 | 6.4 | 0.00 | 0.00 | 0.00 | 57 | 1016.3 |
| 20260503003348 | 6 | 241 | 1.6 | 1.6 | 0.00 | 0.00 | 0.00 | 56 | 1016.5 |
| 20260503002845 | 6 | 228 | 3.2 | 6.4 | 0.00 | 0.00 | 0.00 | 55 | 1016.2 |
| 20260503002343 | 6 | 263 | 4.8 | 9.7 | 0.00 | 0.00 | 0.00 | 55 | 1016.1 |
| 20260503001839 | 6 | 343 | 3.2 | 6.4 | 0.00 | 0.00 | 0.00 | 56 | 1016.2 |
| 20260503001335 | 6 | 278 | 0.0 | 3.2 | 0.00 | 0.00 | 0.00 | 56 | 1016.1 |
| 20260503000833 | 6 | 272 | 3.2 | 6.4 | 0.00 | 0.00 | 0.00 | 55 | 1015.9 |
| 20260503000330 | 7 | 238 | 3.2 | 4.8 | 0.00 | 0.00 | 0.00 | 55 | 1016.1 |
| 20260502235826 | 7 | 234 | 4.8 | 9.7 | 0.00 | 0.00 | 0.00 | 54 | 1016.0 |
| 20260502235323 | 7 | 222 | 1.6 | 4.8 | 0.00 | 0.00 | 0.00 | 56 | 1015.9 |
| 20260502234820 | 7 | 312 | 0.0 | 3.2 | 0.00 | 0.00 | 0.00 | 55 | 1016.0 |
| 20260502234317 | 7 | 308 | 6.4 | 11.3 | 0.00 | 0.00 | 0.00 | 53 | 1015.8 |
| 20260502233814 | 7 | 330 | 3.2 | 9.7 | 0.00 | 0.00 | 0.00 | 54 | 1015.8 |
| 20260502233310 | 7 | 306 | 3.2 | 16.1 | 0.00 | 0.00 | 0.00 | 53 | 1015.9 |
| 20260502232807 | 7 | 289 | 4.8 | 6.4 | 0.00 | 0.00 | 0.00 | 52 | 1015.7 |
| 20260502232304 | 8 | 289 | 3.2 | 6.4 | 0.00 | 0.00 | 0.00 | 51 | 1015.8 |
| 20260502231800 | 7 | 301 | 1.6 | 12.9 | 0.00 | 0.00 | 0.00 | 53 | 1015.8 |
| 20260502231258 | 7 | 272 | 4.8 | 6.4 | 0.00 | 0.00 | 0.00 | 55 | 1016.0 |
| 20260502230756 | 7 | 223 | 0.0 | 4.8 | 0.00 | 0.00 | 0.00 | 54 | 1015.6 |
| 20260502230254 | 7 | 231 | 6.4 | 12.9 | 0.00 | 0.00 | 0.00 | 53 | 1015.9 |
| 20260502225750 | 8 | 265 | 4.8 | 12.9 | 0.00 | 0.00 | 0.00 | 54 | 1015.4 |
| 20260502225247 | 8 | 293 | 3.2 | 11.3 | 0.00 | 0.00 | 0.00 | 51 | 1015.6 |
| 20260502224743 | 7 | 291 | 3.2 | 9.7 | 0.00 | 0.00 | 0.00 | 53 | 1015.7 |
| 20260502224240 | 7 | 250 | 1.6 | 9.7 | 0.00 | 0.00 | 0.00 | 54 | 1015.7 |
| 20260502223737 | 7 | 263 | 3.2 | 9.7 | 0.00 | 0.00 | 0.00 | 53 | 1015.6 |
| 20260502223236 | 8 | 311 | 19.3 | 24.1 | 0.00 | 0.00 | 0.00 | 51 | 1015.6 |
| 20260502222733 | 9 | 5 | 11.3 | 20.9 | 0.00 | 0.00 | 0.00 | 49 | 1015.6 |
| 20260502222229 | 8 | 337 | 1.6 | 12.9 | 0.00 | 0.00 | 0.00 | 52 | 1015.6 |
| 20260502221725 | 8 | 4 | 3.2 | 11.3 | 0.00 | 0.00 | 0.00 | 53 | 1015.6 |
| 20260502221222 | 8 | 204 | 1.6 | 9.7 | 0.00 | 0.00 | 0.00 | 52 | 1015.3 |
| 20260502220718 | 8 | 61 | 3.2 | 9.7 | 0.00 | 0.00 | 0.00 | 52 | 1015.7 |
| 20260502220215 | 8 | 261 | 3.2 | 9.7 | 0.00 | 0.00 | 0.00 | 53 | 1015.4 |
| 20260502215712 | 8 | 267 | 3.2 | 9.7 | 0.00 | 0.00 | 0.00 | 51 | 1015.1 |
| 20260502215209 | 9 | 261 | 1.6 | 3.2 | 0.00 | 0.00 | 0.00 | 49 | 1015.2 |
| 20260502214706 | 8 | 274 | 4.8 | 9.7 | 0.00 | 0.00 | 0.00 | 50 | 1015.2 |
| 20260502214203 | 8 | 276 | 11.3 | 14.5 | 0.00 | 0.00 | 0.00 | 50 | 1015.2 |
| 20260502213700 | 8 | 322 | 9.7 | 12.9 | 0.00 | 0.00 | 0.00 | 50 | 1015.2 |
| 20260502213157 | 8 | 236 | 4.8 | 6.4 | 0.00 | 0.00 | 0.00 | 50 | 1015.0 |
| 20260502212656 | 9 | 244 | 1.6 | 4.8 | 0.00 | 0.00 | 0.00 | 49 | 1015.0 |
| 20260502212154 | 9 | 47 | 1.6 | 4.8 | 0.00 | 0.00 | 0.00 | 50 | 1014.9 |
| 20260502211649 | 9 | 279 | 4.8 | 6.4 | 0.00 | 0.00 | 0.00 | 49 | 1014.9 |
| 20260502211146 | 8 | 245 | 3.2 | 9.7 | 0.00 | 0.00 | 0.00 | 50 | 1015.0 |
| 20260502210644 | 8 | 224 | 4.8 | 11.3 | 0.00 | 0.00 | 0.00 | 50 | 1015.0 |
| 20260502210141 | 8 | 256 | 9.7 | 20.9 | 0.00 | 0.00 | 0.00 | 51 | 1014.9 |
| 20260502205637 | 8 | 115 | 3.2 | 11.3 | 0.00 | 0.00 | 0.00 | 56 | 1015.3 |
| 20260502205134 | 8 | 213 | 4.8 | 6.4 | 0.00 | 0.00 | 0.00 | 53 | 1015.2 |
| 20260502204631 | 8 | 243 | 9.7 | 11.3 | 0.00 | 0.00 | 0.00 | 52 | 1015.3 |
| 20260502204129 | 8 | 257 | 4.8 | 12.9 | 0.00 | 0.00 | 0.00 | 53 | 1015.3 |
| 20260502203626 | 8 | 246 | 8.0 | 11.3 | 0.00 | 0.00 | 0.00 | 51 | 1015.3 |
| 20260502203125 | 8 | 196 | 3.2 | 11.3 | 0.00 | 0.00 | 0.00 | 54 | 1015.2 |
| 20260502202624 | 8 | 358 | 3.2 | 22.5 | 0.00 | 0.00 | 0.00 | 52 | 1015.4 |
| 20260502202123 | 8 | 239 | 9.7 | 16.1 | 0.00 | 0.00 | 0.00 | 52 | 1015.4 |
| 20260502201619 | 8 | 221 | 1.6 | 9.7 | 0.00 | 0.00 | 0.00 | 51 | 1015.4 |
| 20260502201116 | 8 | 306 | 6.4 | 11.3 | 0.00 | 0.00 | 0.00 | 51 | 1015.3 |
| 20260502200611 | 8 | 329 | 6.4 | 11.3 | 0.00 | 0.00 | 0.00 | 50 | 1015.3 |
| 20260502200109 | 9 | 349 | 6.4 | 11.3 | 0.00 | 0.00 | 0.00 | 51 | 1015.2 |
| 20260502195608 | 9 | 236 | 6.4 | 9.7 | 0.00 | 0.00 | 0.00 | 50 | 1015.3 |
| 20260502195103 | 8 | 242 | 4.8 | 16.1 | 0.00 | 0.00 | 0.00 | 49 | 1015.2 |
| 20260502194600 | 9 | 235 | 6.4 | 11.3 | 0.00 | 0.00 | 0.00 | 48 | 1015.3 |
| 20260502194056 | 9 | 222 | 8.0 | 16.1 | 0.00 | 0.00 | 0.00 | 49 | 1014.9 |
| 20260502193553 | 9 | 325 | 9.7 | 17.7 | 0.00 | 0.00 | 0.00 | 48 | 1015.3 |
| 20260502193050 | 10 | 342 | 14.5 | 17.7 | 0.00 | 0.00 | 0.00 | 47 | 1015.3 |
| 20260502192545 | 10 | 320 | 6.4 | 24.1 | 0.00 | 0.00 | 0.00 | 48 | 1015.2 |
| 20260502192043 | 10 | 280 | 3.2 | 9.7 | 0.00 | 0.00 | 0.00 | 47 | 1015.3 |
| 20260502191540 | 10 | 244 | 9.7 | 20.9 | 0.00 | 0.00 | 0.00 | 47 | 1015.1 |
| 20260502191038 | 10 | 321 | 6.4 | 6.4 | 0.00 | 0.00 | 0.00 | 49 | 1015.3 |
| 20260502190535 | 10 | 255 | 3.2 | 16.1 | 0.00 | 0.00 | 0.00 | 47 | 1015.3 |
| 20260502190032 | 11 | 341 | 9.7 | 20.9 | 0.00 | 0.00 | 0.00 | 44 | 1015.3 |
| 20260502185526 | 10 | 342 | 4.8 | 22.5 | 0.00 | 0.00 | 0.00 | 45 | 1015.1 |
| 20260502185024 | 10 | 328 | 8.0 | 12.9 | 0.00 | 0.00 | 0.00 | 46 | 1015.3 |
| 20260502184519 | 10 | 302 | 4.8 | 12.9 | 0.00 | 0.00 | 0.00 | 47 | 1015.3 |
| 20260502184016 | 9 | 245 | 6.4 | 14.5 | 0.00 | 0.00 | 0.00 | 49 | 1015.4 |
| 20260502183512 | 9 | 323 | 1.6 | 4.8 | 0.00 | 0.00 | 0.00 | 49 | 1015.6 |
| 20260502183008 | 9 | 11 | 3.2 | 16.1 | 0.00 | 0.00 | 0.00 | 50 | 1015.4 |
| 20260502182503 | 9 | 292 | 3.2 | 14.5 | 0.00 | 0.00 | 0.00 | 46 | 1015.6 |
| 20260502181959 | 10 | 320 | 8.0 | 17.7 | 0.00 | 0.00 | 0.00 | 46 | 1015.4 |
| 20260502181457 | 10 | 265 | 4.8 | 6.4 | 0.00 | 0.00 | 0.00 | 47 | 1015.3 |
| 20260502180956 | 10 | 351 | 3.2 | 6.4 | 0.00 | 0.00 | 0.00 | 48 | 1015.7 |
| 20260502180453 | 10 | 217 | 6.4 | 14.5 | 0.00 | 0.00 | 0.00 | 48 | 1015.7 |
| 20260502170412 | 10 | 333 | 12.9 | 16.1 | 0.00 | 0.00 | 0.00 | 45 | 1015.7 |
| 20260502163855 | 10 | 181 | 1.6 | 6.4 | 0.00 | 0.00 | 0.00 | 49 | 1016.0 |
| 20260502163351 | 10 | 333 | 9.7 | 17.7 | 0.00 | 0.00 | 0.00 | 44 | 1016.0 |
| 20260502162849 | 10 | 279 | 3.2 | 11.3 | 0.00 | 0.00 | 0.00 | 47 | 1015.9 |
| 20260502162345 | 10 | 275 | 11.3 | 14.5 | 0.00 | 0.00 | 0.00 | 44 | 1015.9 |
| 20260502161843 | 10 | 23 | 4.8 | 11.3 | 0.00 | 0.00 | 0.00 | 47 | 1016.0 |
| 20260502161338 | 10 | 247 | 8.0 | 14.5 | 0.00 | 0.00 | 0.00 | 46 | 1016.1 |
| 20260502160837 | 9 | 231 | 4.8 | 6.4 | 0.00 | 0.00 | 0.00 | 48 | 1016.3 |
| 20260502160335 | 9 | 325 | 4.8 | 9.7 | 0.00 | 0.00 | 0.00 | 47 | 1016.5 |
| 20260502152305 | 10 | 262 | 8.0 | 9.7 | 0.00 | 0.00 | 0.00 | 47 | 1016.8 |
| 20260502151802 | 10 | 288 | 3.2 | 12.9 | 0.00 | 0.00 | 0.00 | 48 | 1016.5 |
| 20260502151258 | 10 | 277 | 4.8 | 6.4 | 0.00 | 0.00 | 0.00 | 47 | 1016.3 |
| 20260502150757 | 9 | 344 | 6.4 | 12.9 | 0.00 | 0.00 | 0.00 | 49 | 1016.4 |
| 20260502150253 | 9 | 70 | 6.4 | 14.5 | 0.00 | 0.00 | 0.00 | 49 | 1016.5 |
| 20260502130642 | 5 | 256 | 1.6 | 9.7 | 0.00 | 0.00 | 0.00 | 71 | 1016.6 |
| 20260502130139 | 5 | 323 | 6.4 | 6.4 | 0.00 | 0.00 | 0.00 | 70 | 1016.7 |
| 20260502123625 | 4 | 14 | 1.6 | 6.4 | 0.00 | 0.00 | 0.00 | 72 | 1016.4 |
| 20260502123121 | 4 | 240 | 4.8 | 6.4 | 0.00 | 0.00 | 0.00 | 73 | 1016.5 |
| 20260502122618 | 4 | 317 | 1.6 | 4.8 | 0.00 | 0.00 | 0.00 | 74 | 1016.6 |
| 20260502122114 | 4 | 238 | 6.4 | 9.7 | 0.00 | 0.00 | 0.00 | 73 | 1016.7 |
| 20260502121613 | 4 | 248 | 3.2 | 6.4 | 0.00 | 0.00 | 0.00 | 74 | 1016.8 |
| 20260502121110 | 4 | 3 | 3.2 | 6.4 | 0.00 | 0.00 | 0.00 | 75 | 1016.7 |
| 20260502120606 | 4 | 300 | 3.2 | 3.2 | 0.00 | 0.00 | 0.00 | 76 | 1016.8 |
| 20260502115601 | 3 | 238 | 1.6 | 4.8 | 0.00 | 0.00 | 0.00 | 77 | 1016.7 |
| 20260502115102 | 3 | 213 | 0.0 | 1.6 | 0.00 | 0.00 | 0.00 | 78 | 1016.7 |
| 20260502114558 | 3 | 251 | 3.2 | 4.8 | 0.00 | 0.00 | 0.00 | 78 | 1016.6 |
| 20260502114055 | 3 | 250 | 3.2 | 4.8 | 0.00 | 0.00 | 0.00 | 78 | 1016.7 |
| 20260502113553 | 3 | 264 | 1.6 | 3.2 | 0.00 | 0.00 | 0.00 | 79 | 1016.6 |
| 20260502113051 | 3 | 238 | 0.0 | 1.6 | 0.00 | 0.00 | 0.00 | 80 | 1016.6 |
| 20260502112549 | 3 | 239 | 0.0 | 1.6 | 0.00 | 0.00 | 0.00 | 80 | 1016.3 |
| 20260502112046 | 3 | 220 | 1.6 | 3.2 | 0.00 | 0.00 | 0.00 | 81 | 1016.5 |
| 20260502111543 | 2 | 233 | 0.0 | 0.0 | 0.00 | 0.00 | 0.00 | 82 | 1016.5 |
| 20260502111041 | 2 | 232 | 0.0 | 0.0 | 0.00 | 0.00 | 0.00 | 82 | 1016.3 |
| 20260502110538 | 2 | 233 | 0.0 | 1.6 | 0.00 | 0.00 | 0.00 | 82 | 1016.5 |
| 20260502110036 | 2 | 252 | 0.0 | 1.6 | 0.00 | 0.00 | 0.00 | 81 | 1016.4 |
| 20260502105533 | 2 | 219 | 0.0 | 0.0 | 0.00 | 0.00 | 0.00 | 81 | 1016.4 |
| 20260502105030 | 2 | 219 | 0.0 | 0.0 | 0.00 | 0.00 | 0.00 | 80 | 1016.5 |
| 20260502104527 | 2 | 219 | 0.0 | 0.0 | 0.00 | 0.00 | 0.00 | 79 | 1016.4 |
| 20260502104025 | 2 | 248 | 0.0 | 1.6 | 0.00 | 0.00 | 0.00 | 79 | 1016.5 |
| 20260502103522 | 2 | 269 | 1.6 | 1.6 | 0.00 | 0.00 | 0.00 | 79 | 1016.4 |
| 20260502103020 | 2 | 240 | 0.0 | 1.6 | 0.00 | 0.00 | 0.00 | 79 | 1016.4 |
| 20260502102516 | 2 | 240 | 0.0 | 3.2 | 0.00 | 0.00 | 0.00 | 78 | 1016.5 |
| 20260502102014 | 2 | 165 | 0.0 | 0.0 | 0.00 | 0.00 | 0.00 | 78 | 1016.7 |
| 20260502101511 | 2 | 195 | 0.0 | 1.6 | 0.00 | 0.00 | 0.00 | 78 | 1016.5 |
| 20260502101010 | 2 | 253 | 1.6 | 4.8 | 0.00 | 0.00 | 0.00 | 78 | 1016.5 |
| 20260502100508 | 2 | 215 | 0.0 | 0.0 | 0.00 | 0.00 | 0.00 | 78 | 1016.5 |
| 20260502091442 | 3 | 229 | 0.0 | 0.0 | 0.00 | 0.00 | 0.00 | 72 | 1016.4 |
| 20260502090939 | 3 | 170 | 0.0 | 1.6 | 0.00 | 0.00 | 0.00 | 71 | 1016.4 |
| 20260502090436 | 4 | 223 | 1.6 | 1.6 | 0.00 | 0.00 | 0.00 | 70 | 1016.7 |
| 20260502071331 | 6 | 318 | 1.6 | 3.2 | 0.00 | 0.00 | 0.00 | 62 | 1016.2 |
| 20260502070829 | 6 | 293 | 1.6 | 3.2 | 0.00 | 0.00 | 0.00 | 64 | 1016.2 |
| 20260502070326 | 6 | 299 | 4.8 | 9.7 | 0.00 | 0.00 | 0.00 | 62 | 1016.2 |
| 20260502065825 | 6 | 262 | 6.4 | 11.3 | 0.00 | 0.00 | 0.00 | 61 | 1016.3 |
| 20260502065323 | 6 | 306 | 6.4 | 11.3 | 0.00 | 0.00 | 0.00 | 63 | 1016.4 |
| 20260502064820 | 6 | 266 | 3.2 | 4.8 | 0.00 | 0.00 | 0.00 | 66 | 1016.4 |
| 20260502064318 | 6 | 249 | 3.2 | 4.8 | 0.00 | 0.00 | 0.00 | 67 | 1016.2 |
| 20260502063815 | 6 | 310 | 4.8 | 6.4 | 0.00 | 0.00 | 0.00 | 68 | 1016.5 |